| time (UTC) | temp C | wind direction | speed KPH | gust KPH | rain 1hr cm | rain 24hr cm | rain mn cm | humidity % | barometer mb |
| 20260506182105 | -17 | 275 | 4.8 | 4.8 | 0.00 | 0.00 | 0.00 | 1015.3 | |
| 20260506181603 | -17 | 310 | 4.8 | 8.0 | 0.00 | 0.00 | 0.00 | 1015.4 | |
| 20260506181059 | -17 | 3 | 4.8 | 16.1 | 0.00 | 0.00 | 0.00 | 1017.1 | |
| 20260506180556 | -17 | 183 | 1.6 | 8.0 | 0.00 | 0.00 | 0.00 | 1015.3 | |
| 20260506180053 | -17 | 319 | 1.6 | 11.3 | 0.00 | 0.00 | 0.00 | 1015.2 | |
| 20260506175549 | -17 | 40 | 3.2 | 8.0 | 0.00 | 0.00 | 0.00 | 1015.1 | |
| 20260506175045 | -17 | 350 | 3.2 | 11.3 | 0.00 | 0.00 | 0.00 | 1015.1 | |
| 20260506174544 | -17 | 209 | 0.0 | 6.4 | 0.00 | 0.00 | 0.00 | 1015.1 | |
| 20260506174039 | -17 | 306 | 0.0 | 6.4 | 0.00 | 0.00 | 0.00 | 1014.9 | |
| 20260506173538 | -17 | 304 | 3.2 | 8.0 | 0.00 | 0.00 | 0.00 | 1014.9 | |
| 20260506173034 | -17 | 22 | 0.0 | 6.4 | 0.00 | 0.00 | 0.00 | 1014.9 | |
| 20260506172532 | -17 | 235 | 0.0 | 4.8 | 0.00 | 0.00 | 0.00 | 1015.0 | |
| 20260506172028 | -17 | 348 | 3.2 | 6.4 | 0.00 | 0.00 | 0.00 | 1015.2 | |
| 20260506171525 | -17 | 144 | 4.8 | 8.0 | 0.00 | 0.00 | 0.00 | 1015.1 | |
| 20260506171023 | -17 | 336 | 4.8 | 8.0 | 0.00 | 0.00 | 0.00 | 1014.7 | |
| 20260506170520 | -17 | 178 | 4.8 | 8.0 | 0.00 | 0.00 | 0.00 | 1014.8 | |
| 20260506170012 | -17 | 185 | 3.2 | 8.0 | 0.00 | 0.00 | 0.00 | 1015.0 | |
| 20260506165510 | -17 | 40 | 6.4 | 8.0 | 0.00 | 0.00 | 0.00 | 1014.9 | |
| 20260506165006 | -17 | 0 | 0.0 | 9.7 | 0.00 | 0.00 | 0.00 | 1015.1 | |
| 20260506164503 | -17 | 343 | 4.8 | 8.0 | 0.00 | 0.00 | 0.00 | 1015.1 | |
| 20260506164001 | -17 | 31 | 0.0 | 4.8 | 0.00 | 0.00 | 0.00 | 1015.5 | |
| 20260506163456 | -17 | 13 | 4.8 | 11.3 | 0.00 | 0.00 | 0.00 | 1015.5 | |
| 20260506162950 | -17 | 123 | 3.2 | 12.9 | 0.00 | 0.00 | 0.00 | 1015.7 | |
| 20260506162449 | -17 | 351 | 1.6 | 9.7 | 0.00 | 0.00 | 0.00 | 1015.7 | |
| 20260506161946 | -17 | 322 | 3.2 | 8.0 | 0.00 | 0.00 | 0.00 | 1015.1 | |
| 20260506161444 | -17 | 292 | 1.6 | 8.0 | 0.00 | 0.00 | 0.00 | 1015.6 | |
| 20260506160941 | -17 | 72 | 0.0 | 12.9 | 0.00 | 0.00 | 0.00 | 1016.3 | |
| 20260506160438 | -17 | 21 | 3.2 | 14.5 | 0.00 | 0.00 | 0.00 | 1016.4 | |
| 20260506155935 | -17 | 314 | 1.6 | 17.7 | 0.00 | 0.00 | 0.00 | 1016.7 | |
| 20260506155432 | -17 | 117 | 1.6 | 17.7 | 0.00 | 0.00 | 0.00 | 1016.7 | |
| 20260506153554 | -17 | 50 | 8.0 | 11.3 | 0.00 | 0.00 | 0.00 | 1016.7 | |
| 20260506153052 | -17 | 335 | 4.8 | 12.9 | 0.00 | 0.00 | 0.00 | 1016.4 | |
| 20260506152548 | -17 | 66 | 4.8 | 24.1 | 0.00 | 0.00 | 0.00 | 1015.9 | |
| 20260506152046 | -17 | 296 | 4.8 | 14.5 | 0.00 | 0.00 | 0.00 | 1016.0 | |
| 20260506151544 | -17 | 356 | 11.3 | 25.7 | 0.00 | 0.00 | 0.00 | 1016.0 | |
| 20260506151041 | -17 | 351 | 4.8 | 14.5 | 0.00 | 0.00 | 0.00 | 1015.1 | |
| 20260506150537 | -17 | 23 | 3.2 | 17.7 | 0.00 | 0.00 | 0.00 | 1015.1 | |
| 20260506150035 | -17 | 8 | 4.8 | 14.5 | 0.00 | 0.00 | 0.00 | 1015.0 | |
| 20260506145531 | -17 | 83 | 3.2 | 11.3 | 0.00 | 0.00 | 0.00 | 1015.0 | |
| 20260506145029 | -17 | 76 | 4.8 | 22.5 | 0.00 | 0.00 | 0.00 | 1015.0 | |
| 20260506144525 | -17 | 29 | 9.7 | 20.9 | 0.00 | 0.00 | 0.00 | 1014.5 | |
| 20260506144023 | -17 | 54 | 8.0 | 17.7 | 0.00 | 0.00 | 0.00 | 1014.5 | |
| 20260506143520 | -17 | 188 | 0.0 | 11.3 | 0.00 | 0.00 | 0.00 | 1014.6 | |
| 20260506143019 | -17 | 33 | 3.2 | 11.3 | 0.00 | 0.00 | 0.00 | 1014.5 | |
| 20260506142516 | -17 | 355 | 8.0 | 12.9 | 0.00 | 0.00 | 0.00 | 1013.5 | |
| 20260506142014 | -17 | 73 | 0.0 | 9.7 | 0.00 | 0.00 | 0.00 | 1013.5 | |
| 20260506141511 | -17 | 337 | 3.2 | 11.3 | 0.00 | 0.00 | 0.00 | 1013.5 | |
| 20260506141010 | -17 | 333 | 4.8 | 6.4 | 0.00 | 0.00 | 0.00 | 1013.5 | |
| 20260506140507 | -17 | 357 | 4.8 | 9.7 | 0.00 | 0.00 | 0.00 | 1013.5 | |
| 20260506140004 | -17 | 103 | 3.2 | 9.7 | 0.00 | 0.00 | 0.00 | 1013.5 | |
| 20260506135501 | -17 | 336 | 4.8 | 12.9 | 0.00 | 0.00 | 0.00 | 1013.5 | |
| 20260506134956 | -17 | 322 | 0.0 | 4.8 | 0.00 | 0.00 | 0.00 | 1012.4 | |
| 20260506134453 | -17 | 299 | 0.0 | 3.2 | 0.00 | 0.00 | 0.00 | 1012.4 | |
| 20260506133949 | -17 | 147 | 0.0 | 1.6 | 0.00 | 0.00 | 0.00 | 1012.4 | |
| 20260506133446 | -17 | 130 | 0.0 | 1.6 | 0.00 | 0.00 | 0.00 | 1012.4 | |
| 20260506132943 | -17 | 186 | 1.6 | 3.2 | 0.00 | 0.00 | 0.00 | 1012.4 | |
| 20260506132440 | -17 | 34 | 0.0 | 3.2 | 0.00 | 0.00 | 0.00 | 1012.4 | |
| 20260506131938 | -17 | 147 | 0.0 | 3.2 | 0.00 | 0.00 | 0.00 | 1012.4 | |
| 20260506131434 | -17 | 113 | 0.0 | 1.6 | 0.00 | 0.00 | 0.00 | 1012.4 | |
| 20260506130931 | -17 | 330 | 1.6 | 3.2 | 0.00 | 0.00 | 0.00 | 1012.4 | |
| 20260506130428 | -17 | 189 | 3.2 | 6.4 | 0.00 | 0.00 | 0.00 | 1012.4 | |
| 20260506125926 | -17 | 135 | 3.2 | 4.8 | 0.00 | 0.00 | 0.00 | 1012.4 | |
| 20260506125424 | -17 | 164 | 0.0 | 1.6 | 0.00 | 0.00 | 0.00 | 1012.5 | |
| 20260506124922 | -17 | 62 | 0.0 | 3.2 | 0.00 | 0.00 | 0.00 | 1012.4 | |
| 20260506124419 | -17 | 113 | 0.0 | 1.6 | 0.00 | 0.00 | 0.00 | 1012.3 | |
| 20260506123917 | -17 | 142 | 0.0 | 1.6 | 0.00 | 0.00 | 0.00 | 1012.1 | |
| 20260506123414 | -17 | 117 | 0.0 | 0.0 | 0.00 | 0.00 | 0.00 | 1012.2 | |
| 20260506122912 | -17 | 170 | 0.0 | 1.6 | 0.00 | 0.00 | 0.00 | 1012.1 | |
| 20260506122408 | -17 | 135 | 0.0 | 0.0 | 0.00 | 0.00 | 0.00 | 1012.2 | |
| 20260506121907 | -17 | 135 | 0.0 | 0.0 | 0.00 | 0.00 | 0.00 | 1012.3 | |
| 20260506121403 | -17 | 147 | 0.0 | 0.0 | 0.00 | 0.00 | 0.00 | 1012.2 | |
| 20260506120900 | -17 | 322 | 0.0 | 1.6 | 0.00 | 0.00 | 0.00 | 1012.1 | |
| 20260506120358 | -17 | 217 | 0.0 | 1.6 | 0.00 | 0.00 | 0.00 | 1012.1 | |
| 20260506115855 | -17 | 202 | 0.0 | 1.6 | 0.00 | 0.00 | 0.00 | 1012.0 | |
| 20260506115353 | -17 | 104 | 0.0 | 1.6 | 0.00 | 0.00 | 0.00 | 1012.0 | |
| 20260506114851 | -17 | 124 | 0.0 | 3.2 | 0.00 | 0.00 | 0.00 | 1012.0 | |
| 20260506114348 | -17 | 142 | 0.0 | 1.6 | 0.00 | 0.00 | 0.00 | 1012.0 | |
| 20260506113847 | -17 | 117 | 0.0 | 1.6 | 0.00 | 0.00 | 0.00 | 1012.0 | |
| 20260506113344 | -17 | 142 | 0.0 | 1.6 | 0.00 | 0.00 | 0.00 | 1011.9 | |
| 20260506112840 | -17 | 117 | 0.0 | 1.6 | 0.00 | 0.00 | 0.00 | 1012.2 | |
| 20260506112338 | -17 | 202 | 0.0 | 0.0 | 0.00 | 0.00 | 0.00 | 1012.0 | |
| 20260506111835 | -17 | 202 | 0.0 | 1.6 | 0.00 | 0.00 | 0.00 | 1012.1 | |
| 20260506111333 | -17 | 217 | 0.0 | 1.6 | 0.00 | 0.00 | 0.00 | 1012.0 | |
| 20260506110831 | -17 | 218 | 0.0 | 1.6 | 0.00 | 0.00 | 0.00 | 1012.0 | |
| 20260506110328 | -17 | 124 | 0.0 | 3.2 | 0.00 | 0.00 | 0.00 | 1012.0 | |
| 20260506105825 | -17 | 142 | 0.0 | 1.6 | 0.00 | 0.00 | 0.00 | 1012.0 | |
| 20260506105321 | -17 | 218 | 0.0 | 3.2 | 0.00 | 0.00 | 0.00 | 1012.0 | |
| 20260506104818 | -17 | 199 | 0.0 | 3.2 | 0.00 | 0.00 | 0.00 | 1012.0 | |
| 20260506104316 | -17 | 235 | 0.0 | 1.6 | 0.00 | 0.00 | 0.00 | 1012.0 | |
| 20260506103813 | -17 | 205 | 0.0 | 1.6 | 0.00 | 0.00 | 0.00 | 1011.9 | |
| 20260506103311 | -17 | 240 | 0.0 | 1.6 | 0.00 | 0.00 | 0.00 | 1011.8 | |
| 20260506102808 | -17 | 203 | 0.0 | 3.2 | 0.00 | 0.00 | 0.00 | 1011.7 | |
| 20260506102306 | -17 | 224 | 0.0 | 0.0 | 0.00 | 0.00 | 0.00 | 1011.7 | |
| 20260506101803 | -17 | 185 | 0.0 | 1.6 | 0.00 | 0.00 | 0.00 | 1011.6 | |
| 20260506101259 | -17 | 190 | 1.6 | 1.6 | 0.00 | 0.00 | 0.00 | 1011.5 | |
| 20260506100757 | -17 | 203 | 0.0 | 3.2 | 0.00 | 0.00 | 0.00 | 1011.6 | |
| 20260506100255 | -17 | 246 | 0.0 | 6.4 | 0.00 | 0.00 | 0.00 | 1011.5 | |
| 20260506095753 | -17 | 173 | 0.0 | 1.6 | 0.00 | 0.00 | 0.00 | 1011.5 | |
| 20260506095250 | -17 | 181 | 0.0 | 4.8 | 0.00 | 0.00 | 0.00 | 1011.5 | |
| 20260506094746 | -17 | 230 | 0.0 | 4.8 | 0.00 | 0.00 | 0.00 | 1011.1 | |
| 20260506094245 | -17 | 230 | 0.0 | 1.6 | 0.00 | 0.00 | 0.00 | 1011.1 | |
| 20260506093743 | -17 | 178 | 0.0 | 4.8 | 0.00 | 0.00 | 0.00 | 1011.1 | |
| 20260506093240 | -17 | 205 | 0.0 | 1.6 | 0.00 | 0.00 | 0.00 | 1011.1 | |
| 20260506092737 | -17 | 174 | 0.0 | 4.8 | 0.00 | 0.00 | 0.00 | 1011.1 | |
| 20260506092235 | -17 | 134 | 0.0 | 3.2 | 0.00 | 0.00 | 0.00 | 1011.0 | |
| 20260506091732 | -17 | 229 | 0.0 | 1.6 | 0.00 | 0.00 | 0.00 | 1011.0 | |
| 20260506091230 | -17 | 129 | 0.0 | 3.2 | 0.00 | 0.00 | 0.00 | 1011.0 | |
| 20260506090727 | -17 | 187 | 0.0 | 4.8 | 0.00 | 0.00 | 0.00 | ||
| 20260506090224 | -17 | 164 | 0.0 | 1.6 | 0.00 | 0.00 | 0.00 | ||
| 20260506085721 | -17 | 50 | 0.0 | 1.6 | 0.00 | 0.00 | 0.00 | ||
| 20260506085217 | -17 | 185 | 0.0 | 3.2 | 0.00 | 0.00 | 0.00 | ||
| 20260506084714 | -17 | 181 | 1.6 | 3.2 | 0.00 | 0.00 | 0.00 | ||
| 20260506084210 | -17 | 142 | 0.0 | 0.0 | 0.00 | 0.00 | 0.00 | ||
| 20260506083707 | -17 | 111 | 0.0 | 4.8 | 0.00 | 0.00 | 0.00 | 1010.8 | |
| 20260506083205 | -17 | 165 | 1.6 | 3.2 | 0.00 | 0.00 | 0.00 | 1010.8 | |
| 20260506082702 | -17 | 163 | 0.0 | 4.8 | 0.00 | 0.00 | 0.00 | 1010.8 | |
| 20260506082203 | -17 | 217 | 0.0 | 1.6 | 0.00 | 0.00 | 0.00 | 1010.8 | |
| 20260506081701 | -17 | 169 | 0.0 | 4.8 | 0.00 | 0.00 | 0.00 | 1010.8 | |
| 20260506081158 | -17 | 187 | 3.2 | 4.8 | 0.00 | 0.00 | 0.00 | 1010.8 | |
| 20260506080656 | -17 | 218 | 1.6 | 3.2 | 0.00 | 0.00 | 0.00 | 1010.8 | |
| 20260506080152 | -17 | 314 | 3.2 | 4.8 | 0.00 | 0.00 | 0.00 | 1010.8 | |
| 20260506073136 | -17 | 198 | 1.6 | 4.8 | 0.00 | 0.00 | 0.00 | 1011.0 | |
| 20260506072632 | -17 | 196 | 0.0 | 4.8 | 0.00 | 0.00 | 0.00 | 1011.1 | |
| 20260506072131 | -17 | 130 | 3.2 | 8.0 | 0.00 | 0.00 | 0.00 | 1011.1 | |
| 20260506071628 | -17 | 166 | 0.0 | 14.5 | 0.00 | 0.00 | 0.00 | 1011.2 | |
| 20260506071126 | -17 | 146 | 6.4 | 11.3 | 0.00 | 0.00 | 0.00 | 1011.1 | |
| 20260506070622 | -17 | 204 | 6.4 | 8.0 | 0.00 | 0.00 | 0.00 | 1011.1 | |
| 20260506070119 | -17 | 197 | 3.2 | 6.4 | 0.00 | 0.00 | 0.00 | 1011.1 | |
| 20260506062056 | -17 | 184 | 3.2 | 4.8 | 0.00 | 0.00 | 0.00 | 1010.8 | |
| 20260506061552 | -17 | 194 | 1.6 | 4.8 | 0.00 | 0.00 | 0.00 | 1010.8 | |
| 20260506061050 | -17 | 284 | 0.0 | 4.8 | 0.00 | 0.00 | 0.00 | 1010.8 | |
| 20260506060548 | -17 | 204 | 1.6 | 9.7 | 0.00 | 0.00 | 0.00 | 1010.8 | |
| 20260506051017 | -17 | 223 | 1.6 | 8.0 | 0.00 | 0.00 | 0.00 | 1011.0 | |
| 20260506050515 | -17 | 203 | 3.2 | 8.0 | 0.00 | 0.00 | 0.00 | 1011.0 | |
| 20260506045006 | -17 | 123 | 3.2 | 4.8 | 0.00 | 0.00 | 0.00 | 1010.7 | |
| 20260506044503 | -17 | 54 | 3.2 | 4.8 | 0.00 | 0.00 | 0.00 | 1010.7 | |
| 20260506044000 | -17 | 147 | 8.0 | 9.7 | 0.00 | 0.00 | 0.00 | 1010.8 | |
| 20260506043457 | -17 | 206 | 0.0 | 4.8 | 0.00 | 0.00 | 0.00 | 1010.8 | |
| 20260506042954 | -17 | 184 | 3.2 | 8.0 | 0.00 | 0.00 | 0.00 | 1010.8 | |
| 20260506042449 | -17 | 186 | 1.6 | 4.8 | 0.00 | 0.00 | 0.00 | ||
| 20260506041946 | -17 | 131 | 4.8 | 9.7 | 0.00 | 0.00 | 0.00 | 1010.3 | |
| 20260506041444 | -17 | 34 | 0.0 | 6.4 | 0.00 | 0.00 | 0.00 | 1010.3 | |
| 20260506040941 | -17 | 209 | 3.2 | 4.8 | 0.00 | 0.00 | 0.00 | 1010.3 | |
| 20260506040438 | -17 | 209 | 3.2 | 3.2 | 0.00 | 0.00 | 0.00 | 1010.3 | |
| 20260506035934 | -17 | 181 | 3.2 | 11.3 | 0.00 | 0.00 | 0.00 | 1010.3 | |
| 20260506035432 | -17 | 146 | 3.2 | 4.8 | 0.00 | 0.00 | 0.00 | 1010.3 | |
| 20260506034928 | -17 | 136 | 4.8 | 9.7 | 0.00 | 0.00 | 0.00 | 1010.3 | |
| 20260506034426 | -17 | 187 | 3.2 | 11.3 | 0.00 | 0.00 | 0.00 | 1010.3 | |
| 20260506033923 | -17 | 206 | 1.6 | 11.3 | 0.00 | 0.00 | 0.00 | 1010.3 | |
| 20260506033420 | -17 | 154 | 3.2 | 8.0 | 0.00 | 0.00 | 0.00 | 1010.3 | |
| 20260506032917 | -17 | 287 | 0.0 | 11.3 | 0.00 | 0.00 | 0.00 | 1010.3 | |
| 20260506032414 | -17 | 176 | 3.2 | 8.0 | 0.00 | 0.00 | 0.00 | 1010.3 | |
| 20260506031910 | -17 | 189 | 3.2 | 6.4 | 0.00 | 0.00 | 0.00 | 1010.0 | |
| 20260506031408 | -17 | 136 | 3.2 | 8.0 | 0.00 | 0.00 | 0.00 | 1010.0 | |
| 20260506030905 | -17 | 174 | 1.6 | 11.3 | 0.00 | 0.00 | 0.00 | 1010.0 | |
| 20260506030403 | -17 | 145 | 3.2 | 8.0 | 0.00 | 0.00 | 0.00 | ||
| 20260506025859 | -17 | 172 | 0.0 | 4.8 | 0.00 | 0.00 | 0.00 | ||
| 20260506025356 | -17 | 149 | 1.6 | 4.8 | 0.00 | 0.00 | 0.00 | ||
| 20260506024853 | -17 | 213 | 1.6 | 6.4 | 0.00 | 0.00 | 0.00 | ||
| 20260506024350 | -17 | 189 | 1.6 | 4.8 | 0.00 | 0.00 | 0.00 | ||
| 20260506023846 | -17 | 165 | 1.6 | 3.2 | 0.00 | 0.00 | 0.00 | ||
| 20260506023344 | -17 | 160 | 1.6 | 6.4 | 0.00 | 0.00 | 0.00 | ||
| 20260506022840 | -17 | 151 | 4.8 | 6.4 | 0.00 | 0.00 | 0.00 | ||
| 20260506022338 | -17 | 242 | 0.0 | 4.8 | 0.00 | 0.00 | 0.00 | ||
| 20260506021836 | -17 | 209 | 1.6 | 4.8 | 0.00 | 0.00 | 0.00 | ||
| 20260506021332 | -17 | 192 | 1.6 | 4.8 | 0.00 | 0.00 | 0.00 | ||
| 20260506020829 | -17 | 190 | 1.6 | 4.8 | 0.00 | 0.00 | 0.00 | ||
| 20260506020327 | -17 | 142 | 0.0 | 3.2 | 0.00 | 0.00 | 0.00 | ||
| 20260506015824 | -17 | 195 | 0.0 | 4.8 | 0.00 | 0.00 | 0.00 | ||
| 20260506015322 | -17 | 309 | 0.0 | 3.2 | 0.00 | 0.00 | 0.00 | ||
| 20260506014818 | -17 | 168 | 3.2 | 8.0 | 0.00 | 0.00 | 0.00 | 1008.6 | |
| 20260506014315 | -17 | 175 | 3.2 | 8.0 | 0.00 | 0.00 | 0.00 | 1008.6 | |
| 20260506013812 | -17 | 177 | 1.6 | 6.4 | 0.00 | 0.00 | 0.00 | 1008.6 | |
| 20260506013309 | -17 | 151 | 0.0 | 3.2 | 0.00 | 0.00 | 0.00 | 1008.6 | |
| 20260506012806 | -17 | 133 | 3.2 | 4.8 | 0.00 | 0.00 | 0.00 | 1008.6 | |
| 20260506012307 | -17 | 174 | 0.0 | 4.8 | 0.00 | 0.00 | 0.00 | 1008.6 | |
| 20260506011800 | -17 | 241 | 0.0 | 4.8 | 0.00 | 0.00 | 0.00 | 1008.6 | |
| 20260506011256 | -17 | 193 | 0.0 | 6.4 | 0.00 | 0.00 | 0.00 | 1008.6 | |
| 20260506010754 | -17 | 176 | 3.2 | 8.0 | 0.00 | 0.00 | 0.00 | 1008.6 | |
| 20260506010251 | -17 | 193 | 0.0 | 6.4 | 0.00 | 0.00 | 0.00 | 1008.6 | |
| 20260506005748 | -17 | 146 | 1.6 | 8.0 | 0.00 | 0.00 | 0.00 | 1008.6 | |
| 20260506005245 | -17 | 130 | 0.0 | 3.2 | 0.00 | 0.00 | 0.00 | 1008.6 | |
| 20260506004741 | -17 | 181 | 1.6 | 3.2 | 0.00 | 0.00 | 0.00 | ||
| 20260506004239 | -17 | 225 | 1.6 | 6.4 | 0.00 | 0.00 | 0.00 | ||
| 20260506003734 | -17 | 219 | 1.6 | 4.8 | 0.00 | 0.00 | 0.00 | ||
| 20260506003231 | -17 | 191 | 3.2 | 8.0 | 0.00 | 0.00 | 0.00 | ||
| 20260506002727 | -17 | 237 | 0.0 | 4.8 | 0.00 | 0.00 | 0.00 | ||
| 20260506002224 | -17 | 205 | 3.2 | 9.7 | 0.00 | 0.00 | 0.00 | ||
| 20260506001719 | -17 | 252 | 0.0 | 8.0 | 0.00 | 0.00 | 0.00 | 1008.4 | |
| 20260506001218 | -17 | 185 | 0.0 | 8.0 | 0.00 | 0.00 | 0.00 | 1008.4 | |
| 20260506000714 | -17 | 204 | 1.6 | 3.2 | 0.00 | 0.00 | 0.00 | 1008.4 | |
| 20260506000212 | -17 | 196 | 1.6 | 4.8 | 0.00 | 0.00 | 0.00 | 1008.4 | |
| 20260505235709 | -17 | 272 | 1.6 | 3.2 | 0.00 | 0.00 | 0.00 | 1008.4 | |
| 20260505235206 | -17 | 208 | 1.6 | 3.2 | 0.00 | 0.00 | 0.00 | 1008.4 | |
| 20260505234703 | -17 | 166 | 0.0 | 6.4 | 0.00 | 0.00 | 0.00 | 1008.4 | |
| 20260505234200 | -17 | 247 | 1.6 | 4.8 | 0.00 | 0.00 | 0.00 | 1008.4 | |
| 20260505233657 | -17 | 224 | 0.0 | 6.4 | 0.00 | 0.00 | 0.00 | 1008.4 | |
| 20260505233155 | -17 | 259 | 0.0 | 4.8 | 0.00 | 0.00 | 0.00 | 1008.4 | |
| 20260505232652 | -17 | 237 | 3.2 | 4.8 | 0.00 | 0.00 | 0.00 | 1008.4 | |
| 20260505232150 | -17 | 206 | 1.6 | 4.8 | 0.00 | 0.00 | 0.00 | 1008.4 | |
| 20260505231646 | -17 | 220 | 4.8 | 9.7 | 0.00 | 0.00 | 0.00 | 1008.4 | |
| 20260505231145 | -17 | 196 | 1.6 | 3.2 | 0.00 | 0.00 | 0.00 | 1008.3 | |
| 20260505230643 | -17 | 120 | 8.0 | 11.3 | 0.00 | 0.00 | 0.00 | 1008.2 | |
| 20260505230138 | -17 | 218 | 3.2 | 8.0 | 0.00 | 0.00 | 0.00 | 1008.2 | |
| 20260505225635 | -17 | 148 | 3.2 | 6.4 | 0.00 | 0.00 | 0.00 | 1008.2 | |
| 20260505225132 | -17 | 170 | 6.4 | 17.7 | 0.00 | 0.00 | 0.00 | 1008.0 | |
| 20260505224628 | -17 | 180 | 3.2 | 12.9 | 0.00 | 0.00 | 0.00 | 1008.1 | |
| 20260505224126 | -17 | 107 | 0.0 | 9.7 | 0.00 | 0.00 | 0.00 | 1008.0 | |
| 20260505223623 | -17 | 173 | 3.2 | 6.4 | 0.00 | 0.00 | 0.00 | 1008.1 | |
| 20260505223119 | -17 | 233 | 3.2 | 4.8 | 0.00 | 0.00 | 0.00 | 1008.2 | |
| 20260505222615 | -17 | 210 | 4.8 | 4.8 | 0.00 | 0.00 | 0.00 | 1008.1 | |
| 20260505222112 | -17 | 215 | 1.6 | 4.8 | 0.00 | 0.00 | 0.00 | 1008.2 | |
| 20260505221609 | -17 | 223 | 4.8 | 6.4 | 0.00 | 0.00 | 0.00 | 1008.0 | |
| 20260505221105 | -17 | 219 | 4.8 | 4.8 | 0.00 | 0.00 | 0.00 | 1008.0 | |
| 20260505220603 | -17 | 135 | 4.8 | 8.0 | 0.00 | 0.00 | 0.00 | ||
| 20260505220101 | -17 | 244 | 1.6 | 6.4 | 0.00 | 0.00 | 0.00 | ||
| 20260505215558 | -17 | 180 | 3.2 | 6.4 | 0.00 | 0.00 | 0.00 | 1008.8 | |
| 20260505215056 | -17 | 219 | 0.0 | 6.4 | 0.00 | 0.00 | 0.00 | 1008.8 | |
| 20260505214554 | -17 | 238 | 3.2 | 6.4 | 0.00 | 0.00 | 0.00 | 1008.8 | |
| 20260505214050 | -17 | 203 | 1.6 | 6.4 | 0.00 | 0.00 | 0.00 | 1008.8 | |
| 20260505213548 | -17 | 183 | 3.2 | 3.2 | 0.00 | 0.00 | 0.00 | 1008.8 | |
| 20260505213044 | -17 | 230 | 4.8 | 9.7 | 0.00 | 0.00 | 0.00 | 1008.8 | |
| 20260505212541 | -17 | 216 | 4.8 | 11.3 | 0.00 | 0.00 | 0.00 | 1008.8 | |
| 20260505212038 | -17 | 169 | 3.2 | 6.4 | 0.00 | 0.00 | 0.00 | 1008.8 | |
| 20260505211535 | -17 | 162 | 1.6 | 6.4 | 0.00 | 0.00 | 0.00 | 1008.8 | |
| 20260505211031 | -17 | 233 | 4.8 | 8.0 | 0.00 | 0.00 | 0.00 | 1008.8 | |
| 20260505210528 | -17 | 152 | 8.0 | 11.3 | 0.00 | 0.00 | 0.00 | 1008.8 | |
| 20260505210026 | -17 | 204 | 3.2 | 11.3 | 0.00 | 0.00 | 0.00 | 1008.8 | |
| 20260505205524 | -17 | 208 | 1.6 | 8.0 | 0.00 | 0.00 | 0.00 | 1008.8 | |
| 20260505205021 | -17 | 223 | 3.2 | 8.0 | 0.00 | 0.00 | 0.00 | 1008.9 | |
| 20260505204518 | -17 | 208 | 4.8 | 6.4 | 0.00 | 0.00 | 0.00 | 1009.1 | |
| 20260505204015 | -17 | 231 | 1.6 | 6.4 | 0.00 | 0.00 | 0.00 | 1008.8 | |
| 20260505203512 | -17 | 197 | 3.2 | 8.0 | 0.00 | 0.00 | 0.00 | 1009.1 | |
| 20260505203009 | -17 | 180 | 1.6 | 16.1 | 0.00 | 0.00 | 0.00 | 1009.2 | |
| 20260505202505 | -17 | 266 | 3.2 | 6.4 | 0.00 | 0.00 | 0.00 | 1009.1 | |
| 20260505202001 | -17 | 220 | 3.2 | 9.7 | 0.00 | 0.00 | 0.00 | 1009.4 | |
| 20260505201458 | -17 | 272 | 4.8 | 6.4 | 0.00 | 0.00 | 0.00 | 1009.4 | |
| 20260505200955 | -17 | 96 | 4.8 | 6.4 | 0.00 | 0.00 | 0.00 | 1009.5 | |
| 20260505200453 | -17 | 223 | 1.6 | 4.8 | 0.00 | 0.00 | 0.00 | 1009.6 | |
| 20260505195949 | -17 | 196 | 1.6 | 9.7 | 0.00 | 0.00 | 0.00 | 1009.7 | |
| 20260505195446 | -17 | 216 | 6.4 | 8.0 | 0.00 | 0.00 | 0.00 | 1009.8 | |
| 20260505194943 | -17 | 227 | 3.2 | 4.8 | 0.00 | 0.00 | 0.00 | 1009.6 | |
| 20260505194441 | -17 | 150 | 6.4 | 14.5 | 0.00 | 0.00 | 0.00 | 1009.7 | |
| 20260505193941 | -17 | 191 | 3.2 | 8.0 | 0.00 | 0.00 | 0.00 | 1010.0 | |
| 20260505193438 | -17 | 326 | 0.0 | 4.8 | 0.00 | 0.00 | 0.00 | 1010.0 | |
| 20260505192936 | -17 | 234 | 3.2 | 9.7 | 0.00 | 0.00 | 0.00 | 1010.0 | |
| 20260505192434 | -17 | 229 | 3.2 | 14.5 | 0.00 | 0.00 | 0.00 | 1010.1 | |
| 20260505191931 | -17 | 192 | 3.2 | 11.3 | 0.00 | 0.00 | 0.00 | 1009.9 | |
| 20260505191430 | -17 | 8 | 1.6 | 16.1 | 0.00 | 0.00 | 0.00 | 1010.2 | |
| 20260505190926 | -17 | 227 | 3.2 | 6.4 | 0.00 | 0.00 | 0.00 | 1010.2 | |
| 20260505190422 | -17 | 283 | 3.2 | 6.4 | 0.00 | 0.00 | 0.00 | 1010.2 | |
| 20260505185917 | -17 | 229 | 3.2 | 9.7 | 0.00 | 0.00 | 0.00 | 1010.5 | |
| 20260505185415 | -17 | 142 | 3.2 | 8.0 | 0.00 | 0.00 | 0.00 | 1010.3 | |
| 20260505184911 | -17 | 248 | 4.8 | 8.0 | 0.00 | 0.00 | 0.00 | 1010.5 | |
| 20260505184408 | -17 | 202 | 1.6 | 6.4 | 0.00 | 0.00 | 0.00 | 1010.6 | |
| 20260505183905 | -17 | 269 | 1.6 | 6.4 | 0.00 | 0.00 | 0.00 | 1010.8 | |
| 20260505183402 | -17 | 279 | 4.8 | 6.4 | 0.00 | 0.00 | 0.00 | 1010.8 | |
| 20260505182858 | -17 | 269 | 4.8 | 9.7 | 0.00 | 0.00 | 0.00 | 1011.0 |